This is the latest recevied weather packets stored in our database for station/object I1SXT-13. If no packets are shown the sender has not sent any weather packets the latest 10 day(s).
| Time | Temp. | Humidity | Pressure | Rain* | Wind** | Luminosity | Snow |
|---|---|---|---|---|---|---|---|
| 1777712666 | 20° C | 40% | 1028 hPa | 0 mm | - | - | - |
| 1777712369 | 20° C | 42% | 1026.7 hPa | 0 mm | - | - | - |
| 1777712065 | 19.44° C | 41% | 1027.5 hPa | 0 mm | - | - | - |
| 1777711767 | 19.44° C | 43% | 1027 hPa | 0 mm | - | - | - |
| 1777711470 | 18.89° C | 44% | 1027.3 hPa | 0 mm | - | - | - |
| 1777711166 | 18.89° C | 47% | 1027.7 hPa | 0 mm | - | - | - |
| 1777710869 | 18.89° C | 47% | 1027 hPa | 0 mm | - | - | - |
| 1777710565 | 18.89° C | 49% | 1028 hPa | 0 mm | - | - | - |
| 1777710268 | 18.89° C | 50% | 1026.7 hPa | 0 mm | - | - | - |
| 1777709964 | 18.33° C | 50% | 1026.6 hPa | 0 mm | - | - | - |
| 1777709369 | 17.78° C | 45% | 1027.2 hPa | 0 mm | - | - | - |
| 1777709065 | 17.78° C | 44% | 1027.7 hPa | 0 mm | - | - | - |
| 1777708464 | 17.22° C | 46% | 1027.3 hPa | 0 mm | - | - | - |
| 1777708167 | 17.22° C | 49% | 1026.9 hPa | 0 mm | - | - | - |
| 1777707869 | 16.67° C | 51% | 1027.4 hPa | 0 mm | - | - | - |
| 1777707565 | 16.67° C | 51% | 1027.7 hPa | 0 mm | - | - | - |
| 1777706667 | 15.56° C | 52% | 1027.2 hPa | 0 mm | - | - | - |
| 1777706370 | 15.56° C | 55% | 1027.4 hPa | 0 mm | - | - | - |
| 1777706066 | 15° C | 56% | 1026.9 hPa | 0 mm | - | - | - |
| 1777705769 | 15° C | 58% | 1027.7 hPa | 0 mm | - | - | - |
| 1777705464 | 14.44° C | 57% | 1027.7 hPa | 0 mm | - | - | - |
| 1777705167 | 14.44° C | 57% | 1027.2 hPa | 0 mm | - | - | - |
| 1777704864 | 14.44° C | 58% | 1028.1 hPa | 0 mm | - | - | - |
| 1777704566 | 13.89° C | 58% | 1027.6 hPa | 0 mm | - | - | - |
| 1777704269 | 14.44° C | 57% | 1027.7 hPa | 0 mm | - | - | - |
* Rain since midnight (hover to see other rain measurements)
** Current wind speed in m/s (hover to see current wind gust speed)